Location: Elk Horn Observatory
(36.6768°N, 80.8309°W)
Time: 10:40:48
(UTC-04:00)

Envisat - Visible Passes

Search period start: 19 April 2019 00:00
Search period end: 29 April 2019 00:00
Orbit: 764 x 766 km, 98.2° (Epoch: 19 April)

Date Brightness Start Highest point End Pass type
(mag) Time Alt. Az. Time Alt. Az. Time Alt. Az.
19 Apr 4.7 20:39:00 10° SSW 20:43:37 36° W 20:48:16 10° NNW visible
21 Apr 5.7 21:05:40 10° SW 21:09:19 20° W 21:12:58 10° NW visible
22 Apr 4.2 20:27:31 10° S 20:32:21 46° W 20:37:14 10° NNW visible
23 Apr 6.2 21:34:28 10° W 21:35:06 10° W 21:35:44 10° W visible
24 Apr 5.3 20:53:52 10° SSW 20:58:01 25° W 21:02:11 10° NW visible
26 Apr 5.9 21:21:14 10° WSW 21:23:45 14° W 21:26:18 10° WNW visible
27 Apr 4.9 20:42:13 10° SSW 20:46:43 32° W 20:51:15 10° NNW visible
